Regional Weather Roundup
Issued by NWS

Home | Current Version | Previous Version | Graphics & Text | Print | Product List | Glossary On
Versions: 1 2 3 4 5 6 7 8 9 10 11 12 13 14 15 16 17 18 19 20 21 22 23 24 25 26 27 28 29 30 31 32 33 34 35 36 37 38 39 40 41 42 43 44 45 46 47 48 49 50
000
ASUS43 KLOT 210010
RWRIL

ILLINOIS REGIONAL WEATHER ROUNDUP
NATIONAL WEATHER SERVICE CHICAGO/ROMEOVILLE IL
700 PM CDT MON OCT 20 2014

NOTE: "FAIR" INDICATES FEW OR NO CLOUDS BELOW 12,000 FEET WITH NO
SIGNIFICANT WEATHER AND/OR OBSTRUCTIONS TO VISIBILITY.

* THESE STATIONS ARE NOT UNDER NWS QUALITY CONTROL. THEY ALSO MAY NOT
  REPORT WEATHER SUCH AS PRECIPITATION OR FOG.

ILZ001-002-007-009-015-016-024-210100-
NORTHWEST ILLINOIS

CITY           SKY/WX    TMP DP  RH WIND       PRES   REMARKS
MOLINE         CLEAR     61  42  49 NW6       29.96R
6HR MIN TEMP:  61; 6HR MAX TEMP:  68;

STERLING*      MOCLDY    57  43  58 N5        29.96R
SAVANNA*       CLEAR     58  42  53 N3        29.96R
$$

ILZ003-004-008-010-011-017-018-210100-
NORTH CENTRAL ILLINOIS

CITY           SKY/WX    TMP DP  RH WIND       PRES   REMARKS
ROCKFORD       MOCLDY    56  40  55 NE12      29.99R
6HR MIN TEMP:  56; 6HR MAX TEMP:  66;

FREEPORT*      PTCLDY    52  41  66 NE3       29.99R
ROCHELLE*      MOCLDY    55  42  63 NE8       29.97R
DE KALB*       CLOUDY    53  40  61 N8        29.98R
PERU*          CLOUDY    57  44  62 NW6       29.96R
$$

ILZ005-006-012>014-019>023-210100-
NORTHEAST ILLINOIS

CITY           SKY/WX    TMP DP  RH WIND       PRES   REMARKS
CHICAGO-OHARE  MOCLDY    54  45  71 NE8       29.96R
6HR MIN TEMP:  54; 6HR MAX TEMP:  65;

CHICAGO-MIDWAY CLOUDY    57  47  69 N10       29.96R
6HR MIN TEMP:  56; 6HR MAX TEMP:  66;

AURORA         MOCLDY    55  42  61 N7        29.96R
6HR MIN TEMP:  55; 6HR MAX TEMP:  67;

LANSING*       MOCLDY    54  47  79 N8        29.95S
JOLIET*        PTCLDY    55  42  61 N6        29.95R
WAUKEGAN       CLOUDY    52  42  69 NW5       29.96R
6HR MIN TEMP:  52; 6HR MAX TEMP:  62;

DUPAGE AIRPORT CLOUDY    56  42  59 N12       29.95R
6HR MIN TEMP:  54; 6HR MAX TEMP:  67;

KANKAKEE*      CLOUDY    56  49  78 NE10      29.95R
WHEELING       CLOUDY    55  46  71 N12       29.98R
6HR MIN TEMP:  54; 6HR MAX TEMP:  66;

MORRIS*        MOCLDY    54  44  69 CALM      29.95R
ROMEOVILLE*    CLOUDY    56  41  57 N8        29.96R
NORTHERLY ISL    N/A     54  48  80 MISG        N/A
$$

LMZ740>746-210100-
SOUTHERN LAKE MICHIGAN

STATION/POSITION SKY/WX   TEMP    WIND        PRES    VSBY  WAVE
                          AIR SEA DIR/SP/G                  HT/PER
                          (F)     (DEG/KT/KT) (MB)    (MI)  (FT/S)
SOUTHERN BUOY              53 55  350/ 16/ 17 1014.1R         3/ 5
WAUKEGAN HARBOR            54     340/  8/ 13   N/A
HARRISON CRIB              54     360/ 16/ 18   N/A
BURNHAM HARBOR             54     340/  9/ 12   N/A
CALUMET HARBOR             54     350/  9/ 12 1013.2R
MICHIGAN CITY              53     350/ 20/ 22   N/A
$$

ILZ025>027-034>036-040-047-049-050-058-095>099-210100-
WEST-CENTRAL ILLINOIS

CITY           SKY/WX    TMP DP  RH WIND       PRES   REMARKS
QUINCY         CLEAR     58  42  55 NW7       29.99S
GALESBURG*     CLEAR     56  42  58 W3        29.96S
MACOMB*        CLEAR     56  43  61 NW6       30.00R HAZE
JACKSONVILLE*  CLEAR     61  43  52 NW6       29.98R
PITTSFIELD*    CLEAR     62  43  49 W3        30.01R
$$

ILZ028>032-037-038-041>044-048-051>054-059>061-210100-
CENTRAL ILLINOIS

CITY           SKY/WX    TMP DP  RH WIND       PRES   REMARKS
PONTIAC        PTCLDY    57  45  62 NW3       29.95R
BLOOMINGTON    CLEAR     58  45  62 NW7       29.97R
DECATUR        CLEAR     61  44  53 NW7       29.96R
PEORIA         PTCLDY    62  43  49 NW3       29.96R
6HR MIN TEMP:  62; 6HR MAX TEMP:  70;

LACON*         CLEAR     51  43  73 CALM      29.95R
LINCOLN*       PTCLDY    60  45  58 CALM      29.95R
SPRINGFIELD    CLEAR     61  43  51 NW5       29.98R
6HR MIN TEMP:  61; 6HR MAX TEMP:  73;

TAYLORVILLE    CLEAR     55  43  62 NW6       29.97R
$$

ILZ033-039-045-046-055>057-062-063-210100-
EAST-CENTRAL ILLINOIS

CITY           SKY/WX    TMP DP  RH WIND       PRES   REMARKS
CHAMPAIGN      PTCLDY    57  44  62 MISG      29.95R
DANVILLE*      PTCLDY    57  46  64 NW7       29.90R
RANTOUL*       PTCLDY    61  42  50 NW7       29.95R
MATTOON        CLEAR     56  44  64 NW8       29.95R
PARIS*         CLEAR     57  47  69 NW5       29.94R
$$

ILZ079-100>102-210100-
SOUTHWEST ILLINOIS

CITY           SKY/WX    TMP DP  RH WIND       PRES   REMARKS
ALTON          CLEAR     61  37  41 NW7       29.99R
BELLEVILLE     CLEAR     59  45  59 NW6       29.97R
CAHOKIA*       CLEAR     64  44  48 N9        29.98R
SPARTA*        CLEAR     64  43  46 N6        29.98R
$$

ILZ064>066-069>071-074>076-080>082-084>086-088>090-092>094-210100-
SOUTH-CENTRAL ILLINOIS

CITY           SKY/WX    TMP DP  RH WIND       PRES   REMARKS
CARBONDALE     CLEAR     64  48  56 N6        29.96R
6HR MIN TEMP:  64; 6HR MAX TEMP:  77;

CAIRO*         CLEAR     66  55  67 SW3       29.96R
EFFINGHAM*     CLEAR     61  40  46 NW6       29.96R
MARION         CLEAR     68  48  49 NW3       29.96R
MT. VERNON     CLEAR     61  45  55 CALM      29.97R
CENTRALIA*     CLEAR     63  41  45 NW7       29.97R
SALEM*         CLEAR     61  46  57 NW6       29.97R
METROPOLIS*    CLEAR     64  56  76 SW3       29.95R
$$

ILZ067-068-072-073-078-083-087-091-210100-
SOUTHEAST ILLINOIS

CITY           SKY/WX    TMP DP  RH WIND       PRES   REMARKS
LAWRENCEVILLE  CLEAR     60  45  57 NW8       29.93R
FLORA*         CLEAR     62  44  51 NW6       29.96R
FAIRFIELD*     CLEAR     63  44  48 CALM      29.94R
HARRISBURG*    CLEAR     66  46  47 NW6       29.96R
ROBINSON*      CLEAR     63  46  55 NW7       29.94R
CARMI*         CLEAR     62  49  62 NW7       29.94R
$$

ABBREVIATIONS USED IN REMARKS
   TC - TEMPERATURE IN CELSIUS
  WCI - WIND CHILL INDEX
   HX - HEAT INDEX
  VSB - VISIBILITY
$$




USA.gov is the U.S. government's official web portal to all federal, state and local government web resources and services.